| time (UTC) | temp C | wind direction | speed KPH | gust KPH | rain 1hr cm | rain 24hr cm | rain mn cm | humidity % | barometer mb |
| 20260831170505 | -17 | 109 | 1.6 | 4.8 | 0.00 | 0.00 | 0.00 | 1019.4 | |
| 20260831170006 | -17 | 342 | 0.0 | 4.8 | 0.00 | 0.00 | 0.00 | 1019.4 | |
| 20260831165504 | -17 | 36 | 1.6 | 4.8 | 0.00 | 0.00 | 0.00 | 1019.4 | |
| 20260831165059 | -17 | 78 | 0.0 | 3.2 | 0.00 | 0.00 | 0.00 | 1019.6 | |
| 20260831164559 | -17 | 360 | 0.0 | 4.8 | 0.00 | 0.00 | 0.00 | 1019.6 | |
| 20260831164100 | -17 | 123 | 1.6 | 4.8 | 0.00 | 0.00 | 0.00 | 1019.6 | |
| 20260831163555 | -17 | 355 | 0.0 | 3.2 | 0.00 | 0.00 | 0.00 | 1019.8 | |
| 20260831163054 | -17 | 119 | 0.0 | 4.8 | 0.00 | 0.00 | 0.00 | 1019.7 | |
| 20260831162556 | -17 | 120 | 0.0 | 4.8 | 0.00 | 0.00 | 0.00 | 1019.8 | |
| 20260831162051 | -17 | 157 | 0.0 | 3.2 | 0.00 | 0.00 | 0.00 | 1019.9 | |
| 20260831161550 | -17 | 67 | 0.0 | 3.2 | 0.00 | 0.00 | 0.00 | 1019.8 | |
| 20260831161048 | -17 | 119 | 1.6 | 3.2 | 0.00 | 0.00 | 0.00 | 1019.9 | |
| 20260831160546 | -17 | 146 | 0.0 | 3.2 | 0.00 | 0.00 | 0.00 | 1019.9 | |
| 20260831160045 | -17 | 144 | 0.0 | 3.2 | 0.00 | 0.00 | 0.00 | 1019.8 | |
| 20260831155545 | -17 | 126 | 0.0 | 3.2 | 0.00 | 0.00 | 0.00 | 1019.9 | |
| 20260831155042 | -17 | 126 | 0.0 | 3.2 | 0.00 | 0.00 | 0.00 | 1020.1 | |
| 20260831154544 | -17 | 118 | 0.0 | 3.2 | 0.00 | 0.00 | 0.00 | 1020.1 | |
| 20260831154039 | -17 | 114 | 0.0 | 3.2 | 0.00 | 0.00 | 0.00 | 1020.2 | |
| 20260831153541 | -17 | 114 | 0.0 | 4.8 | 0.00 | 0.00 | 0.00 | 1020.1 | |
| 20260831153045 | -17 | 113 | 0.0 | 4.8 | 0.00 | 0.00 | 0.00 | 1020.1 | |
| 20260831152535 | -17 | 140 | 0.0 | 1.6 | 0.00 | 0.00 | 0.00 | 1020.1 | |
| 20260831152033 | -17 | 123 | 0.0 | 3.2 | 0.00 | 0.00 | 0.00 | 1020.1 | |
| 20260831151540 | -17 | 123 | 0.0 | 3.2 | 0.00 | 0.00 | 0.00 | 1020.1 | |
| 20260831151030 | -17 | 144 | 0.0 | 3.2 | 0.00 | 0.00 | 0.00 | 1020.1 | |
| 20260831150530 | -17 | 141 | 0.0 | 3.2 | 0.00 | 0.00 | 0.00 | 1020.1 | |
| 20260831150028 | -17 | 140 | 0.0 | 3.2 | 0.00 | 0.00 | 0.00 | 1020.1 | |
| 20260831145526 | -17 | 141 | 0.0 | 3.2 | 0.00 | 0.00 | 0.00 | 1020.1 | |
| 20260831145027 | -17 | 149 | 0.0 | 3.2 | 0.00 | 0.00 | 0.00 | 1020.3 | |
| 20260831144522 | -17 | 122 | 0.0 | 1.6 | 0.00 | 0.00 | 0.00 | 1020.3 | |
| 20260831144022 | -17 | 121 | 0.0 | 0.0 | 0.00 | 0.00 | 0.00 | 1020.1 | |
| 20260831143521 | -17 | 121 | 0.0 | 1.6 | 0.00 | 0.00 | 0.00 | 1020.3 | |
| 20260831143019 | -17 | 121 | 0.0 | 1.6 | 0.00 | 0.00 | 0.00 | 1020.1 | |
| 20260831142517 | -17 | 119 | 0.0 | 1.6 | 0.00 | 0.00 | 0.00 | 1020.2 | |
| 20260831142016 | -17 | 65 | 0.0 | 3.2 | 0.00 | 0.00 | 0.00 | 1020.1 | |
| 20260831141514 | -17 | 43 | 0.0 | 3.2 | 0.00 | 0.00 | 0.00 | 1020.2 | |
| 20260831141014 | -17 | 37 | 0.0 | 3.2 | 0.00 | 0.00 | 0.00 | 1020.1 | |
| 20260831140511 | -17 | 43 | 0.0 | 3.2 | 0.00 | 0.00 | 0.00 | 1020.3 | |
| 20260831140010 | -17 | 35 | 0.0 | 4.8 | 0.00 | 0.00 | 0.00 | 1020.3 | |
| 20260831135509 | -17 | 360 | 1.6 | 4.8 | 0.00 | 0.00 | 0.00 | 1020.2 | |
| 20260831135008 | -17 | 120 | 0.0 | 3.2 | 0.00 | 0.00 | 0.00 | 1020.0 | |
| 20260831134516 | -17 | 140 | 0.0 | 0.0 | 0.00 | 0.00 | 0.00 | 1019.9 | |
| 20260831134005 | -17 | 140 | 0.0 | 1.6 | 0.00 | 0.00 | 0.00 | 1020.0 | |
| 20260831133502 | -17 | 140 | 0.0 | 3.2 | 0.00 | 0.00 | 0.00 | 1019.9 | |
| 20260831133003 | -17 | 136 | 0.0 | 3.2 | 0.00 | 0.00 | 0.00 | 1020.0 | |
| 20260831132100 | -17 | 132 | 0.0 | 1.6 | 0.00 | 0.00 | 0.00 | 1019.9 | |
| 20260831131559 | -17 | 132 | 0.0 | 1.6 | 0.00 | 0.00 | 0.00 | 1019.9 | |
| 20260831131055 | -17 | 120 | 0.0 | 1.6 | 0.00 | 0.00 | 0.00 | 1020.0 | |
| 20260831130554 | -17 | 121 | 0.0 | 1.6 | 0.00 | 0.00 | 0.00 | 1020.1 | |
| 20260831130054 | -17 | 121 | 0.0 | 1.6 | 0.00 | 0.00 | 0.00 | 1020.0 | |
| 20260831125551 | -17 | 136 | 0.0 | 1.6 | 0.00 | 0.00 | 0.00 | 1020.0 | |
| 20260831125050 | -17 | 136 | 0.0 | 1.6 | 0.00 | 0.00 | 0.00 | 1020.0 | |
| 20260831124549 | -17 | 136 | 0.0 | 1.6 | 0.00 | 0.00 | 0.00 | 1020.0 | |
| 20260831124052 | -17 | 136 | 0.0 | 1.6 | 0.00 | 0.00 | 0.00 | 1020.0 | |
| 20260831123549 | -17 | 136 | 0.0 | 1.6 | 0.00 | 0.00 | 0.00 | 1019.9 | |
| 20260831123043 | -17 | 136 | 0.0 | 3.2 | 0.00 | 0.00 | 0.00 | 1020.0 | |
| 20260831122544 | -17 | 138 | 0.0 | 3.2 | 0.00 | 0.00 | 0.00 | 1020.0 | |
| 20260831122041 | -17 | 136 | 0.0 | 3.2 | 0.00 | 0.00 | 0.00 | 1019.9 | |
| 20260831121543 | -17 | 135 | 0.0 | 3.2 | 0.00 | 0.00 | 0.00 | 1019.9 | |
| 20260831121039 | -17 | 134 | 0.0 | 0.0 | 0.00 | 0.00 | 0.00 | 1019.9 | |
| 20260831120537 | -17 | 134 | 0.0 | 0.0 | 0.00 | 0.00 | 0.00 | 1019.9 | |
| 20260831120040 | -17 | 134 | 0.0 | 0.0 | 0.00 | 0.00 | 0.00 | 1019.9 | |
| 20260831115533 | -17 | 134 | 0.0 | 0.0 | 0.00 | 0.00 | 0.00 | 1019.9 | |
| 20260831115032 | -17 | 134 | 0.0 | 0.0 | 0.00 | 0.00 | 0.00 | 1019.8 | |
| 20260831114531 | -17 | 134 | 0.0 | 3.2 | 0.00 | 0.00 | 0.00 | 1019.9 | |
| 20260831114029 | -17 | 134 | 0.0 | 3.2 | 0.00 | 0.00 | 0.00 | 1019.8 | |
| 20260831113530 | -17 | 138 | 0.0 | 3.2 | 0.00 | 0.00 | 0.00 | 1019.8 | |
| 20260831113025 | -17 | 136 | 0.0 | 3.2 | 0.00 | 0.00 | 0.00 | 1019.7 | |
| 20260831112525 | -17 | 136 | 0.0 | 3.2 | 0.00 | 0.00 | 0.00 | 1019.7 | |
| 20260831112023 | -17 | 134 | 0.0 | 3.2 | 0.00 | 0.00 | 0.00 | 1019.6 | |
| 20260831111521 | -17 | 136 | 0.0 | 0.0 | 0.00 | 0.00 | 0.00 | 1019.5 | |
| 20260831111025 | -17 | 136 | 0.0 | 0.0 | 0.00 | 0.00 | 0.00 | 1019.6 | |
| 20260831110518 | -17 | 136 | 0.0 | 0.0 | 0.00 | 0.00 | 0.00 | 1019.5 | |
| 20260831110016 | -17 | 136 | 0.0 | 3.2 | 0.00 | 0.00 | 0.00 | 1019.4 | |
| 20260831105515 | -17 | 136 | 0.0 | 3.2 | 0.00 | 0.00 | 0.00 | 1019.5 | |
| 20260831105013 | -17 | 135 | 0.0 | 3.2 | 0.00 | 0.00 | 0.00 | 1019.5 | |
| 20260831104511 | -17 | 118 | 0.0 | 3.2 | 0.00 | 0.00 | 0.00 | 1019.5 | |
| 20260831104012 | -17 | 109 | 0.0 | 1.6 | 0.00 | 0.00 | 0.00 | 1019.4 | |
| 20260831103509 | -17 | 109 | 0.0 | 1.6 | 0.00 | 0.00 | 0.00 | 1019.5 | |
| 20260831103013 | -17 | 134 | 0.0 | 0.0 | 0.00 | 0.00 | 0.00 | 1019.4 | |
| 20260831102508 | -17 | 134 | 0.0 | 0.0 | 0.00 | 0.00 | 0.00 | 1019.3 | |
| 20260831102005 | -17 | 134 | 0.0 | 0.0 | 0.00 | 0.00 | 0.00 | 1019.2 | |
| 20260831101507 | -17 | 134 | 0.0 | 0.0 | 0.00 | 0.00 | 0.00 | 1019.2 | |
| 20260831101002 | -17 | 134 | 0.0 | 1.6 | 0.00 | 0.00 | 0.00 | 1019.3 | |
| 20260831100501 | -17 | 134 | 0.0 | 1.6 | 0.00 | 0.00 | 0.00 | 1019.2 | |
| 20260831100100 | -17 | 132 | 0.0 | 1.6 | 0.00 | 0.00 | 0.00 | 1019.1 | |
| 20260831095558 | -17 | 131 | 0.0 | 1.6 | 0.00 | 0.00 | 0.00 | 1019.1 | |
| 20260831095056 | -17 | 134 | 0.0 | 3.2 | 0.00 | 0.00 | 0.00 | 1019.1 | |
| 20260831094604 | -17 | 136 | 0.0 | 3.2 | 0.00 | 0.00 | 0.00 | 1019.1 | |
| 20260831094053 | -17 | 136 | 0.0 | 1.6 | 0.00 | 0.00 | 0.00 | 1019.1 | |
| 20260831093552 | -17 | 140 | 0.0 | 0.0 | 0.00 | 0.00 | 0.00 | 1019.2 | |
| 20260831093138 | -17 | 140 | 0.0 | 0.0 | 0.00 | 0.00 | 0.00 | 1019.2 | |
| 20260831092549 | -17 | 140 | 0.0 | 0.0 | 0.00 | 0.00 | 0.00 | 1019.1 | |
| 20260831092047 | -17 | 140 | 0.0 | 0.0 | 0.00 | 0.00 | 0.00 | 1019.1 | |
| 20260831091550 | -17 | 140 | 0.0 | 0.0 | 0.00 | 0.00 | 0.00 | 1019.0 | |
| 20260831091045 | -17 | 140 | 0.0 | 1.6 | 0.00 | 0.00 | 0.00 | 1019.1 | |
| 20260831090543 | -17 | 140 | 0.0 | 3.2 | 0.00 | 0.00 | 0.00 | 1019.2 | |
| 20260831090043 | -17 | 140 | 1.6 | 3.2 | 0.00 | 0.00 | 0.00 | 1019.1 | |
| 20260831085541 | -17 | 140 | 0.0 | 3.2 | 0.00 | 0.00 | 0.00 | 1019.1 | |
| 20260831085040 | -17 | 137 | 0.0 | 3.2 | 0.00 | 0.00 | 0.00 | 1019.0 | |
| 20260831084622 | -17 | 136 | 0.0 | 3.2 | 0.00 | 0.00 | 0.00 | 1019.1 | |
| 20260831084036 | -17 | 137 | 0.0 | 0.0 | 0.00 | 0.00 | 0.00 | 1019.2 | |
| 20260831083535 | -17 | 138 | 0.0 | 0.0 | 0.00 | 0.00 | 0.00 | 1019.1 | |
| 20260831083033 | -17 | 138 | 0.0 | 0.0 | 0.00 | 0.00 | 0.00 | 1019.0 | |
| 20260831082531 | -17 | 138 | 0.0 | 0.0 | 0.00 | 0.00 | 0.00 | 1019.1 | |
| 20260831082034 | -17 | 138 | 0.0 | 0.0 | 0.00 | 0.00 | 0.00 | 1019.1 | |
| 20260831081531 | -17 | 138 | 0.0 | 3.2 | 0.00 | 0.00 | 0.00 | 1019.1 | |
| 20260831081027 | -17 | 138 | 0.0 | 3.2 | 0.00 | 0.00 | 0.00 | 1019.1 | |
| 20260831080525 | -17 | 140 | 0.0 | 3.2 | 0.00 | 0.00 | 0.00 | 1019.1 | |
| 20260831080125 | -17 | 140 | 0.0 | 3.2 | 0.00 | 0.00 | 0.00 | 1019.0 | |
| 20260831075524 | -17 | 140 | 0.0 | 3.2 | 0.00 | 0.00 | 0.00 | 1019.1 | |
| 20260831075024 | -17 | 141 | 0.0 | 3.2 | 0.00 | 0.00 | 0.00 | 1019.2 | |
| 20260831074536 | -17 | 137 | 0.0 | 1.6 | 0.00 | 0.00 | 0.00 | 1019.1 | |
| 20260831074021 | -17 | 137 | 0.0 | 0.0 | 0.00 | 0.00 | 0.00 | 1019.2 | |
| 20260831073519 | -17 | 137 | 0.0 | 0.0 | 0.00 | 0.00 | 0.00 | 1019.2 | |
| 20260831073016 | -17 | 137 | 0.0 | 1.6 | 0.00 | 0.00 | 0.00 | 1019.2 | |
| 20260831072519 | -17 | 137 | 0.0 | 3.2 | 0.00 | 0.00 | 0.00 | 1019.1 | |
| 20260831072014 | -17 | 137 | 0.0 | 3.2 | 0.00 | 0.00 | 0.00 | 1019.1 | |
| 20260831071513 | -17 | 137 | 0.0 | 3.2 | 0.00 | 0.00 | 0.00 | 1019.2 | |
| 20260831071013 | -17 | 136 | 0.0 | 1.6 | 0.00 | 0.00 | 0.00 | 1019.3 | |
| 20260831070510 | -17 | 140 | 0.0 | 3.2 | 0.00 | 0.00 | 0.00 | 1019.3 | |
| 20260831070010 | -17 | 130 | 0.0 | 3.2 | 0.00 | 0.00 | 0.00 | 1019.3 | |
| 20260831065608 | -17 | 138 | 0.0 | 0.0 | 0.00 | 0.00 | 0.00 | 1019.2 | |
| 20260831065006 | -17 | 138 | 0.0 | 0.0 | 0.00 | 0.00 | 0.00 | 1019.2 | |
| 20260831064505 | -17 | 138 | 0.0 | 1.6 | 0.00 | 0.00 | 0.00 | 1019.3 | |
| 20260831064001 | -17 | 138 | 0.0 | 3.2 | 0.00 | 0.00 | 0.00 | 1019.3 | |
| 20260831063501 | -17 | 136 | 0.0 | 3.2 | 0.00 | 0.00 | 0.00 | 1019.2 | |
| 20260831063111 | -17 | 136 | 0.0 | 3.2 | 0.00 | 0.00 | 0.00 | 1019.2 | |
| 20260831062559 | -17 | 136 | 0.0 | 3.2 | 0.00 | 0.00 | 0.00 | 1019.3 | |
| 20260831062058 | -17 | 136 | 1.6 | 3.2 | 0.00 | 0.00 | 0.00 | 1019.3 | |
| 20260831061556 | -17 | 134 | 0.0 | 1.6 | 0.00 | 0.00 | 0.00 | 1019.3 | |
| 20260831061054 | -17 | 134 | 0.0 | 0.0 | 0.00 | 0.00 | 0.00 | 1019.4 | |
| 20260831060553 | -17 | 134 | 0.0 | 0.0 | 0.00 | 0.00 | 0.00 | 1019.5 | |
| 20260831060051 | -17 | 134 | 0.0 | 0.0 | 0.00 | 0.00 | 0.00 | 1019.5 | |
| 20260831055554 | -17 | 134 | 0.0 | 1.6 | 0.00 | 0.00 | 0.00 | 1019.6 | |
| 20260831055048 | -17 | 134 | 0.0 | 3.2 | 0.00 | 0.00 | 0.00 | 1019.6 | |
| 20260831054546 | -17 | 135 | 0.0 | 3.2 | 0.00 | 0.00 | 0.00 | 1019.6 | |
| 20260831054045 | -17 | 135 | 0.0 | 3.2 | 0.00 | 0.00 | 0.00 | 1019.6 | |
| 20260831053543 | -17 | 136 | 0.0 | 1.6 | 0.00 | 0.00 | 0.00 | 1019.7 | |
| 20260831053053 | -17 | 133 | 0.0 | 3.2 | 0.00 | 0.00 | 0.00 | 1019.7 | |
| 20260831052540 | -17 | 130 | 0.0 | 3.2 | 0.00 | 0.00 | 0.00 | 1019.6 | |
| 20260831052042 | -17 | 127 | 0.0 | 0.0 | 0.00 | 0.00 | 0.00 | 1019.7 | |
| 20260831051541 | -17 | 127 | 0.0 | 0.0 | 0.00 | 0.00 | 0.00 | 1019.7 | |
| 20260831051037 | -17 | 127 | 0.0 | 0.0 | 0.00 | 0.00 | 0.00 | 1019.7 | |
| 20260831050535 | -17 | 127 | 0.0 | 1.6 | 0.00 | 0.00 | 0.00 | 1019.8 | |
| 20260831050034 | -17 | 127 | 0.0 | 1.6 | 0.00 | 0.00 | 0.00 | 1019.9 | |
| 20260831045534 | -17 | 130 | 0.0 | 3.2 | 0.00 | 0.00 | 0.00 | 1019.9 | |
| 20260831045031 | -17 | 132 | 0.0 | 3.2 | 0.00 | 0.00 | 0.00 | 1020.0 | |
| 20260831044528 | -17 | 133 | 0.0 | 3.2 | 0.00 | 0.00 | 0.00 | 1020.0 | |
| 20260831044028 | -17 | 129 | 1.6 | 3.2 | 0.00 | 0.00 | 0.00 | 1019.9 | |
| 20260831043526 | -17 | 128 | 0.0 | 3.2 | 0.00 | 0.00 | 0.00 | 1019.9 | |
| 20260831043024 | -17 | 132 | 0.0 | 1.6 | 0.00 | 0.00 | 0.00 | 1020.0 | |
| 20260831042524 | -17 | 132 | 0.0 | 1.6 | 0.00 | 0.00 | 0.00 | 1020.0 | |
| 20260831042022 | -17 | 135 | 0.0 | 1.6 | 0.00 | 0.00 | 0.00 | 1020.0 | |
| 20260831041521 | -17 | 135 | 0.0 | 1.6 | 0.00 | 0.00 | 0.00 | 1020.0 | |
| 20260831041022 | -17 | 111 | 0.0 | 1.6 | 0.00 | 0.00 | 0.00 | 1019.9 | |
| 20260831040519 | -17 | 123 | 0.0 | 0.0 | 0.00 | 0.00 | 0.00 | 1019.8 | |
| 20260831040022 | -17 | 123 | 0.0 | 1.6 | 0.00 | 0.00 | 0.00 | 1019.9 | |
| 20260831035516 | -17 | 123 | 0.0 | 3.2 | 0.00 | 0.00 | 0.00 | 1019.9 | |
| 20260831035015 | -17 | 128 | 1.6 | 3.2 | 0.00 | 0.00 | 0.00 | 1020.0 | |
| 20260831034515 | -17 | 111 | 0.0 | 3.2 | 0.00 | 0.00 | 0.00 | 1020.0 | |
| 20260831034014 | -17 | 126 | 1.6 | 3.2 | 0.00 | 0.00 | 0.00 | 1020.0 | |
| 20260831033515 | -17 | 120 | 0.0 | 1.6 | 0.00 | 0.00 | 0.00 | 1020.1 | |
| 20260831033018 | -17 | 120 | 0.0 | 3.2 | 0.00 | 0.00 | 0.00 | 1020.2 | |
| 20260831032514 | -17 | 120 | 0.0 | 3.2 | 0.00 | 0.00 | 0.00 | 1020.2 | |
| 20260831032015 | -17 | 114 | 0.0 | 4.8 | 0.00 | 0.00 | 0.00 | 1020.2 | |
| 20260831031513 | -17 | 121 | 1.6 | 4.8 | 0.00 | 0.00 | 0.00 | 1020.0 | |
| 20260831031013 | -17 | 136 | 0.0 | 3.2 | 0.00 | 0.00 | 0.00 | 1020.2 | |
| 20260831030514 | -17 | 113 | 0.0 | 0.0 | 0.00 | 0.00 | 0.00 | 1020.2 | |
| 20260831030013 | -17 | 113 | 0.0 | 3.2 | 0.00 | 0.00 | 0.00 | 1020.3 | |
| 20260831025513 | -17 | 103 | 1.6 | 3.2 | 0.00 | 0.00 | 0.00 | 1020.3 | |
| 20260831025013 | -17 | 103 | 0.0 | 3.2 | 0.00 | 0.00 | 0.00 | 1020.2 | |
| 20260831024513 | -17 | 106 | 0.0 | 1.6 | 0.00 | 0.00 | 0.00 | 1020.2 | |
| 20260831024012 | -17 | 111 | 0.0 | 1.6 | 0.00 | 0.00 | 0.00 | 1020.2 | |
| 20260831023516 | -17 | 108 | 0.0 | 1.6 | 0.00 | 0.00 | 0.00 | 1020.3 | |
| 20260831023012 | -17 | 108 | 0.0 | 1.6 | 0.00 | 0.00 | 0.00 | 1020.3 | |
| 20260831022512 | -17 | 102 | 0.0 | 3.2 | 0.00 | 0.00 | 0.00 | 1020.2 | |
| 20260831022012 | -17 | 116 | 0.0 | 3.2 | 0.00 | 0.00 | 0.00 | 1020.2 | |
| 20260831021516 | -17 | 103 | 0.0 | 1.6 | 0.00 | 0.00 | 0.00 | 1020.2 | |
| 20260831021012 | -17 | 129 | 0.0 | 0.0 | 0.00 | 0.00 | 0.00 | 1020.3 | |
| 20260831020512 | -17 | 129 | 0.0 | 3.2 | 0.00 | 0.00 | 0.00 | 1020.3 | |
| 20260831020011 | -17 | 129 | 0.0 | 3.2 | 0.00 | 0.00 | 0.00 | 1020.3 | |
| 20260831015511 | -17 | 109 | 1.6 | 3.2 | 0.00 | 0.00 | 0.00 | 1020.3 | |
| 20260831015010 | -17 | 104 | 0.0 | 3.2 | 0.00 | 0.00 | 0.00 | 1020.4 | |
| 20260831014510 | -17 | 126 | 0.0 | 3.2 | 0.00 | 0.00 | 0.00 | 1020.4 | |
| 20260831014011 | -17 | 106 | 0.0 | 3.2 | 0.00 | 0.00 | 0.00 | 1020.4 | |
| 20260831013510 | -17 | 106 | 0.0 | 3.2 | 0.00 | 0.00 | 0.00 | 1020.4 | |
| 20260831013010 | -17 | 96 | 0.0 | 1.6 | 0.00 | 0.00 | 0.00 | 1020.3 | |
| 20260831012611 | -17 | 104 | 0.0 | 1.6 | 0.00 | 0.00 | 0.00 | 1020.3 | |
| 20260831012011 | -17 | 94 | 0.0 | 1.6 | 0.00 | 0.00 | 0.00 | 1020.4 | |
| 20260831011516 | -17 | 113 | 0.0 | 1.6 | 0.00 | 0.00 | 0.00 | 1020.4 | |
| 20260831011009 | -17 | 88 | 0.0 | 1.6 | 0.00 | 0.00 | 0.00 | 1020.3 | |
| 20260831010509 | -17 | 120 | 0.0 | 1.6 | 0.00 | 0.00 | 0.00 | 1020.3 | |
| 20260831010009 | -17 | 119 | 0.0 | 3.2 | 0.00 | 0.00 | 0.00 | 1020.1 | |
| 20260831005509 | -17 | 124 | 1.6 | 3.2 | 0.00 | 0.00 | 0.00 | 1020.0 | |
| 20260831005008 | -17 | 110 | 0.0 | 3.2 | 0.00 | 0.00 | 0.00 | 1019.9 | |
| 20260831004508 | -17 | 106 | 0.0 | 3.2 | 0.00 | 0.00 | 0.00 | 1019.9 | |
| 20260831004008 | -17 | 98 | 0.0 | 3.2 | 0.00 | 0.00 | 0.00 | 1019.8 | |
| 20260831003507 | -17 | 134 | 0.0 | 3.2 | 0.00 | 0.00 | 0.00 | 1019.9 | |
| 20260831003005 | -17 | 111 | 0.0 | 3.2 | 0.00 | 0.00 | 0.00 | 1019.7 | |
| 20260831002504 | -17 | 111 | 0.0 | 3.2 | 0.00 | 0.00 | 0.00 | 1019.6 | |
| 20260831002003 | -17 | 120 | 0.0 | 1.6 | 0.00 | 0.00 | 0.00 | 1019.5 | |
| 20260831001504 | -17 | 118 | 0.0 | 1.6 | 0.00 | 0.00 | 0.00 | 1019.5 | |
| 20260831001059 | -17 | 107 | 0.0 | 1.6 | 0.00 | 0.00 | 0.00 | 1019.3 | |
| 20260831000558 | -17 | 109 | 0.0 | 1.6 | 0.00 | 0.00 | 0.00 | 1019.3 | |
| 20260831000057 | -17 | 106 | 0.0 | 3.2 | 0.00 | 0.00 | 0.00 | 1019.4 | |
| 20260830235555 | -17 | 108 | 0.0 | 3.2 | 0.00 | 0.00 | 0.00 | 1019.4 | |
| 20260830235058 | -17 | 117 | 0.0 | 1.6 | 0.00 | 0.00 | 0.00 | 1019.3 | |
| 20260830234551 | -17 | 109 | 0.0 | 1.6 | 0.00 | 0.00 | 0.00 | 1019.3 | |
| 20260830234054 | -17 | 92 | 0.0 | 3.2 | 0.00 | 0.00 | 0.00 | 1019.4 | |
| 20260830233549 | -17 | 123 | 0.0 | 3.2 | 0.00 | 0.00 | 0.00 | 1019.4 | |
| 20260830233059 | -17 | 98 | 0.0 | 1.6 | 0.00 | 0.00 | 0.00 | 1019.5 | |
| 20260830232547 | -17 | 141 | 0.0 | 3.2 | 0.00 | 0.00 | 0.00 | 1019.5 | |
| 20260830232045 | -17 | 105 | 0.0 | 3.2 | 0.00 | 0.00 | 0.00 | 1019.6 | |
| 20260830231545 | -17 | 105 | 0.0 | 3.2 | 0.00 | 0.00 | 0.00 | 1019.6 | |
| 20260830231043 | -17 | 105 | 0.0 | 3.2 | 0.00 | 0.00 | 0.00 | 1019.5 | |
| 20260830230542 | -17 | 94 | 0.0 | 1.6 | 0.00 | 0.00 | 0.00 | 1019.5 | |
| 20260830230039 | -17 | 101 | 0.0 | 3.2 | 0.00 | 0.00 | 0.00 | 1019.4 | |
| 20260830225538 | -17 | 98 | 0.0 | 3.2 | 0.00 | 0.00 | 0.00 | 1019.3 | |
| 20260830225035 | -17 | 116 | 0.0 | 4.8 | 0.00 | 0.00 | 0.00 | 1019.5 | |
| 20260830224635 | -17 | 115 | 0.0 | 4.8 | 0.00 | 0.00 | 0.00 | 1019.4 | |
| 20260830224033 | -17 | 117 | 0.0 | 3.2 | 0.00 | 0.00 | 0.00 | 1019.5 | |
| 20260830223531 | -17 | 129 | 0.0 | 3.2 | 0.00 | 0.00 | 0.00 | 1019.5 | |
| 20260830223032 | -17 | 119 | 0.0 | 3.2 | 0.00 | 0.00 | 0.00 | 1019.4 | |
| 20260830222528 | -17 | 141 | 0.0 | 3.2 | 0.00 | 0.00 | 0.00 | 1019.5 | |
| 20260830222026 | -17 | 153 | 0.0 | 4.8 | 0.00 | 0.00 | 0.00 | 1019.5 | |
| 20260830221525 | -17 | 119 | 1.6 | 4.8 | 0.00 | 0.00 | 0.00 | 1019.5 | |
| 20260830221024 | -17 | 117 | 1.6 | 4.8 | 0.00 | 0.00 | 0.00 | 1019.6 | |
| 20260830220522 | -17 | 40 | 0.0 | 3.2 | 0.00 | 0.00 | 0.00 | 1019.5 | |
| 20260830220024 | -17 | 147 | 0.0 | 3.2 | 0.00 | 0.00 | 0.00 | 1020.1 | |
| 20260830215520 | -17 | 95 | 0.0 | 4.8 | 0.00 | 0.00 | 0.00 | 1019.5 | |
| 20260830215020 | -17 | 133 | 1.6 | 4.8 | 0.00 | 0.00 | 0.00 | 1019.5 | |
| 20260830214516 | -17 | 142 | 0.0 | 4.8 | 0.00 | 0.00 | 0.00 | 1019.5 | |
| 20260830214016 | -17 | 124 | 1.6 | 4.8 | 0.00 | 0.00 | 0.00 | 1019.4 | |
| 20260830213513 | -17 | 127 | 1.6 | 4.8 | 0.00 | 0.00 | 0.00 | 1019.4 | |
| 20260830213012 | -17 | 129 | 1.6 | 9.7 | 0.00 | 0.00 | 0.00 | 1019.4 | |
| 20260830212511 | -17 | 113 | 3.2 | 9.7 | 0.00 | 0.00 | 0.00 | 1019.4 | |
| 20260830212009 | -17 | 56 | 1.6 | 6.4 | 0.00 | 0.00 | 0.00 | 1019.3 | |
| 20260830211508 | -17 | 167 | 1.6 | 8.0 | 0.00 | 0.00 | 0.00 | 1019.3 | |
| 20260830211006 | -17 | 111 | 1.6 | 9.7 | 0.00 | 0.00 | 0.00 | 1019.2 | |
| 20260830210505 | -17 | 114 | 1.6 | 6.4 | 0.00 | 0.00 | 0.00 | 1019.2 | |
| 20260830210003 | -17 | 138 | 1.6 | 6.4 | 0.00 | 0.00 | 0.00 | 1019.2 | |
| 20260830205503 | -17 | 169 | 1.6 | 8.0 | 0.00 | 0.00 | 0.00 | 1019.2 | |
| 20260830205059 | -17 | 119 | 0.0 | 8.0 | 0.00 | 0.00 | 0.00 | 1019.3 | |
| 20260830204559 | -17 | 136 | 1.6 | 8.0 | 0.00 | 0.00 | 0.00 | 1019.2 | |
| 20260830204057 | -17 | 147 | 1.6 | 4.8 | 0.00 | 0.00 | 0.00 | 1019.2 | |
| 20260830203555 | -17 | 327 | 1.6 | 8.0 | 0.00 | 0.00 | 0.00 | 1019.3 | |
| 20260830203053 | -17 | 132 | 1.6 | 9.7 | 0.00 | 0.00 | 0.00 | 1019.4 | |
| 20260830202552 | -17 | 119 | 1.6 | 4.8 | 0.00 | 0.00 | 0.00 | 1019.5 | |
| 20260830202051 | -17 | 102 | 1.6 | 4.8 | 0.00 | 0.00 | 0.00 | 1019.6 | |
| 20260830201550 | -17 | 134 | 0.0 | 8.0 | 0.00 | 0.00 | 0.00 | 1019.6 | |
| 20260830201047 | -17 | 119 | 1.6 | 8.0 | 0.00 | 0.00 | 0.00 | 1019.5 | |
| 20260830200546 | -17 | 129 | 1.6 | 4.8 | 0.00 | 0.00 | 0.00 | 1019.6 | |
| 20260830200045 | -17 | 133 | 1.6 | 4.8 | 0.00 | 0.00 | 0.00 | 1019.6 | |
| 20260830195546 | -17 | 129 | 1.6 | 4.8 | 0.00 | 0.00 | 0.00 | 1019.8 | |
| 20260830195041 | -17 | 122 | 1.6 | 4.8 | 0.00 | 0.00 | 0.00 | 1019.8 | |
| 20260830194553 | -17 | 120 | 1.6 | 4.8 | 0.00 | 0.00 | 0.00 | 1020.0 | |
| 20260830194042 | -17 | 163 | 1.6 | 4.8 | 0.00 | 0.00 | 0.00 | 1020.0 | |
| 20260830193537 | -17 | 107 | 1.6 | 3.2 | 0.00 | 0.00 | 0.00 | 1020.2 | |
| 20260830193036 | -17 | 123 | 1.6 | 3.2 | 0.00 | 0.00 | 0.00 | 1020.4 | |
| 20260830192536 | -17 | 144 | 1.6 | 3.2 | 0.00 | 0.00 | 0.00 | 1020.6 | |
| 20260830192032 | -17 | 94 | 1.6 | 3.2 | 0.00 | 0.00 | 0.00 | 1020.8 | |
| 20260830191531 | -17 | 88 | 0.0 | 4.8 | 0.00 | 0.00 | 0.00 | 1020.7 | |
| 20260830191030 | -17 | 104 | 1.6 | 9.7 | 0.00 | 0.00 | 0.00 | 1020.8 | |
| 20260830190528 | -17 | 117 | 1.6 | 9.7 | 0.00 | 0.00 | 0.00 | 1020.9 | |
| 20260830190027 | -17 | 103 | 0.0 | 6.4 | 0.00 | 0.00 | 0.00 | 1020.8 | |
| 20260830185525 | -17 | 125 | 0.0 | 6.4 | 0.00 | 0.00 | 0.00 | 1020.9 | |
| 20260830185027 | -17 | 128 | 1.6 | 4.8 | 0.00 | 0.00 | 0.00 | 1021.0 | |
| 20260830184522 | -17 | 142 | 1.6 | 3.2 | 0.00 | 0.00 | 0.00 | 1021.0 | |
| 20260830184020 | -17 | 70 | 0.0 | 4.8 | 0.00 | 0.00 | 0.00 | 1021.1 | |
| 20260830183519 | -17 | 165 | 0.0 | 6.4 | 0.00 | 0.00 | 0.00 | 1021.3 | |
| 20260830183031 | -17 | 134 | 3.2 | 6.4 | 0.00 | 0.00 | 0.00 | 1021.3 | |
| 20260830182518 | -17 | 117 | 1.6 | 6.4 | 0.00 | 0.00 | 0.00 | 1021.5 | |
| 20260830182015 | -17 | 16 | 1.6 | 4.8 | 0.00 | 0.00 | 0.00 | 1021.5 | |
| 20260830181515 | -17 | 355 | 1.6 | 4.8 | 0.00 | 0.00 | 0.00 | 1021.7 | |
| 20260830181012 | -17 | 91 | 1.6 | 4.8 | 0.00 | 0.00 | 0.00 | 1021.7 | |
| 20260830180510 | -17 | 119 | 1.6 | 3.2 | 0.00 | 0.00 | 0.00 | 1021.8 | |
| 20260830180013 | -17 | 136 | 0.0 | 3.2 | 0.00 | 0.00 | 0.00 | 1021.8 | |
| 20260830175508 | -17 | 132 | 0.0 | 3.2 | 0.00 | 0.00 | 0.00 | 1022.0 | |
| 20260830175005 | -17 | 124 | 0.0 | 3.2 | 0.00 | 0.00 | 0.00 | 1022.1 | |
| 20260830174511 | -17 | 168 | 1.6 | 4.8 | 0.00 | 0.00 | 0.00 | 1022.1 | |
| 20260830174002 | -17 | 130 | 1.6 | 4.8 | 0.00 | 0.00 | 0.00 | 1022.1 | |
| 20260830173502 | -17 | 155 | 0.0 | 4.8 | 0.00 | 0.00 | 0.00 | 1022.1 | |
| 20260830173104 | -17 | 130 | 1.6 | 4.8 | 0.00 | 0.00 | 0.00 | 1022.2 | |
| 20260830172559 | -17 | 133 | 1.6 | 9.7 | 0.00 | 0.00 | 0.00 | 1022.2 | |
| 20260830172057 | -17 | 143 | 0.0 | 9.7 | 0.00 | 0.00 | 0.00 | 1022.3 | |
| 20260830171600 | -17 | 144 | 1.6 | 4.8 | 0.00 | 0.00 | 0.00 | 1022.3 | |
| 20260830171059 | -17 | 158 | 0.0 | 6.4 | 0.00 | 0.00 | 0.00 | 1022.3 | |
| 20260830170552 | -17 | 156 | 1.6 | 6.4 | 0.00 | 0.00 | 0.00 | 1022.4 |